Weather History for Rifle, CO

Change the Weather History Date:

Wednesday, February 19, 2014

  Actual Average Record
Temperature  
Mean Temperature 39 °F 32 °F  
Max Temperature 48 °F 44 °F 65 °F (1935)
Min Temperature 29 °F 20 °F -19 °F (1942)
Degree Days  
Heating Degree Days 26 33  
Month to date heating degree days 677 680  
Since 1 July heating degree days 4968 4715  
Cooling Degree Days 0 0  
Month to date cooling degree days 0 0  
Year to date cooling degree days 0 0  
Moisture  
Dew Point 26 °F    
Average Humidity 63    
Maximum Humidity 89    
Minimum Humidity 37    
Precipitation  
Precipitation 0.05 in 0.02 in 0.16 in (1993)
Month to date precipitation 0.35 0.50  
Year to date precipitation 1.34 1.31  
Sea Level Pressure  
Sea Level Pressure 29.78 in    
Wind  
Wind Speed 6 mph (WNW)    
Max Wind Speed 30 mph    
Max Gust Speed 39 mph    
Visibility 8 miles    
Events Rain , Snow , Thunderstorm    
T = Trace of Precipitation, MM = Missing Value Source: NWS Daily Summary

Daily Weather History Graph

Daily Weather History Graph

Search for Another Location

Airport:

Trip Planner

Search our weather history database for the weather conditions in past years. The results will help you decide how hot, cold, wet, or windy it might be!

Date:

Astronomy

Feb. 19, 2014 Rise Set
Actual Time 6:57 AM MST 5:52 PM MST
Civil Twilight 6:30 AM MST 6:19 PM MST
Nautical Twilight 5:59 AM MST 6:50 PM MST
Astronomical Twilight 5:27 AM MST 7:22 PM MST
Moon 10:47 PM MST (2/19) 9:06 AM MST (2/19)
Length of Visible Light 11h 49m
Length of Day
10h 54m
Waning Gibbous, 79% of the Moon is Illuminated
Feb 19
Waning Gibbous
Feb 22
Last Quarter
Mar 1
New
Mar 8
First Quarter
Mar 16
Full

Hourly Weather History & Observations

Time (MST) Temp. Windchill Dew Point Humidity Pressure Visibility Wind Dir Wind Speed Gust Speed Precip Events Conditions
12:53 AM 33.1 °F - 26.1 °F 75% 29.96 in 10.0 mi Calm Calm - N/A   Clear
1:53 AM 30.0 °F 26.5 °F 25.0 °F 82% 29.93 in 10.0 mi SSE 3.5 mph - N/A   Clear
2:53 AM 30.0 °F 24.1 °F 25.0 °F 82% 29.91 in 10.0 mi ENE 5.8 mph - N/A   Scattered Clouds
3:53 AM 30.0 °F - 25.0 °F 82% 29.88 in 10.0 mi Calm Calm - N/A   Overcast
4:53 AM 30.9 °F 27.5 °F 25.0 °F 79% 29.86 in 10.0 mi South 3.5 mph - N/A   Overcast
5:53 AM 28.9 °F - 24.1 °F 82% 29.87 in 10.0 mi Calm Calm - N/A   Mostly Cloudy
6:53 AM 28.9 °F 23.9 °F 24.1 °F 82% 29.86 in 10.0 mi SSE 4.6 mph - N/A   Mostly Cloudy
7:53 AM 28.9 °F - 25.0 °F 85% 29.87 in 10.0 mi Calm Calm - N/A   Partly Cloudy
8:53 AM 30.9 °F - 25.0 °F 79% 29.86 in 10.0 mi Calm Calm - N/A   Partly Cloudy
9:53 AM 33.1 °F - 25.0 °F 72% 29.84 in 10.0 mi Calm Calm - N/A   Mostly Cloudy
10:53 AM 36.0 °F - 26.1 °F 67% 29.81 in 10.0 mi Calm Calm - N/A   Clear
11:53 AM 39.9 °F 36.7 °F 23.0 °F 51% 29.72 in 10.0 mi Variable 4.6 mph - N/A   Clear
12:53 PM 45.0 °F 43.5 °F 21.0 °F 39% 29.64 in 10.0 mi ENE 3.5 mph - N/A   Clear
1:53 PM 46.9 °F - 21.9 °F 37% 29.57 in 10.0 mi Calm Calm - N/A   Clear
2:53 PM 45.0 °F 36.0 °F 26.1 °F 48% 29.60 in 10.0 mi WSW 25.3 mph 36.8 mph N/A   Overcast
3:53 PM 43.0 °F 35.1 °F 27.0 °F 53% 29.60 in 10.0 mi WSW 17.3 mph - N/A   Mostly Cloudy
4:30 PM 36.0 °F 23.5 °F 32.0 °F 86% 29.66 in 5.0 mi NW 27.6 mph 39.1 mph 0.00 in Rain Light Rain
4:38 PM 36.0 °F 24.2 °F 30.9 °F 82% 29.68 in 3.0 mi NW 24.2 mph 36.8 mph 0.01 in Snow Light Snow
4:45 PM 35.1 °F 25.9 °F 30.9 °F 85% 29.69 in 4.0 mi NW 13.8 mph 33.4 mph 0.01 in Snow , Thunderstorm Light Thunderstorms and Snow
4:53 PM 35.1 °F 26.4 °F 30.9 °F 85% 29.71 in 6.0 mi West 12.7 mph - 0.02 in Snow , Thunderstorm Light Thunderstorms and Snow
5:00 PM 34.0 °F 25.0 °F 30.9 °F 89% 29.70 in 8.0 mi West 12.7 mph - 0.00 in Snow Light Snow
5:15 PM 34.0 °F 31.0 °F 32.0 °F 92% 29.70 in 4.0 mi West 3.5 mph - 0.00 in Snow Light Snow
5:28 PM 35.1 °F 30.1 °F 30.9 °F 85% 29.69 in 3.0 mi WSW 5.8 mph - 0.01 in Snow Light Snow
5:34 PM 34.0 °F 28.8 °F 30.9 °F 89% 29.69 in 2.5 mi Variable 5.8 mph - 0.01 in Snow Light Snow
5:41 PM 34.0 °F 31.0 °F 30.9 °F 89% 29.70 in 5.0 mi Variable 3.5 mph - 0.01 in Snow Light Snow
5:53 PM 34.0 °F - 30.9 °F 89% 29.72 in 7.0 mi Calm Calm - 0.02 in Snow Light Snow
6:13 PM 34.0 °F 31.0 °F 30.9 °F 89% 29.70 in 9.0 mi ESE 3.5 mph - 0.00 in   Overcast
6:27 PM 34.0 °F 26.0 °F 30.9 °F 89% 29.73 in 6.0 mi North 10.4 mph - 0.00 in Snow Light Snow
6:41 PM 33.1 °F 24.9 °F 30.9 °F 92% 29.75 in 2.5 mi NW 10.4 mph - 0.01 in Snow Light Snow
6:49 PM 33.8 °F 29.6 °F 30.2 °F 87% 29.75 in 5.0 mi NW 4.6 mph - 0.01 in Snow Light Snow
6:53 PM 33.1 °F 30.0 °F 30.9 °F 92% 29.79 in 9.0 mi WNW 3.5 mph - 0.01 in   Overcast
7:53 PM 35.1 °F 24.8 °F 25.0 °F 67% 29.82 in 10.0 mi WNW 17.3 mph - N/A   Overcast
8:53 PM 33.1 °F 21.9 °F 19.9 °F 59% 29.87 in 10.0 mi WNW 18.4 mph 23.0 mph N/A   Scattered Clouds
9:18 PM 30.9 °F 21.7 °F 19.9 °F 64% 29.88 in 8.0 mi North 11.5 mph 23.0 mph 0.00 in Snow Light Snow
9:53 PM 30.0 °F 21.1 °F 19.0 °F 64% 29.92 in 10.0 mi WNW 10.4 mph - 0.00 in   Overcast
10:53 PM 28.9 °F 20.4 °F 18.0 °F 64% 29.94 in 10.0 mi West 9.2 mph - N/A   Overcast
11:53 PM 28.9 °F 18.2 °F 14.0 °F 54% 29.95 in 10.0 mi WNW 13.8 mph - N/A   Overcast